Open Text Operating Margin 2010-2024 | OTEX

Current and historical operating margin for Open Text (OTEX) over the last 10 years. The current operating profit margin for Open Text as of March 31, 2024 is 16.78%.
Open Text Operating Margin Historical Data
Date TTM Revenue TTM Operating Income Operating Margin
2024-03-31 $5.90B $0.82B 13.82%
2023-12-31 $5.70B $0.65B 11.45%
2023-09-30 $5.06B $0.58B 11.53%
2023-06-30 $4.49B $0.52B 11.51%
2023-03-31 $3.90B $0.53B 13.68%
2022-12-31 $3.53B $0.60B 17.01%
2022-09-30 $3.51B $0.61B 17.34%
2022-06-30 $3.49B $0.65B 18.49%
2022-03-31 $3.49B $0.68B 19.51%
2021-12-31 $3.44B $0.70B 20.37%
2021-09-30 $3.42B $0.74B 21.70%
2021-06-30 $3.39B $0.74B 21.85%
2021-03-31 $3.32B $0.66B 19.85%
2020-12-31 $3.30B $0.60B 18.23%
2020-09-30 $3.22B $0.55B 17.18%
2020-06-30 $3.11B $0.50B 16.20%
2020-03-31 $3.03B $0.57B 18.84%
2019-12-31 $2.94B $0.61B 20.85%
2019-09-30 $2.90B $0.60B 20.74%
2019-06-30 $2.87B $0.57B 19.77%
2019-03-31 $2.88B $0.56B 19.41%
2018-12-31 $2.84B $0.53B 18.47%
2018-09-30 $2.84B $0.52B 18.23%
2018-06-30 $2.82B $0.51B 18.01%
2018-03-31 $2.73B $0.46B 17.03%
2017-12-31 $2.63B $0.43B 16.19%
2017-09-30 $2.44B $0.37B 14.99%
2017-06-30 $2.29B $0.35B 15.36%
2017-03-31 $2.11B $0.34B 16.05%
2016-12-31 $1.96B $0.36B 18.52%
2016-09-30 $1.88B $0.37B 19.45%
2016-06-30 $1.83B $0.37B 20.16%
2016-03-31 $1.82B $0.36B 19.63%
2015-12-31 $1.83B $0.32B 17.59%
2015-09-30 $1.83B $0.32B 17.61%
2015-06-30 $1.85B $0.35B 18.89%
2015-03-31 $1.86B $0.38B 20.12%
2014-12-31 $1.86B $0.39B 20.93%
2014-09-30 $1.76B $0.35B 20.06%
2014-06-30 $1.63B $0.30B 18.52%
2014-03-31 $1.48B $0.24B 16.37%
2013-12-31 $1.37B $0.22B 15.73%
2013-09-30 $1.36B $0.21B 15.36%
2013-06-30 $1.36B $0.20B 14.45%
2013-03-31 $1.32B $0.19B 14.22%
2012-12-31 $1.28B $0.17B 13.64%
2012-09-30 $1.25B $0.16B 13.01%
2012-06-30 $1.21B $0.15B 12.34%
2012-03-31 $1.19B $0.14B 11.72%
2011-12-31 $1.16B $0.14B 12.19%
2011-09-30 $1.10B $0.14B 12.87%
2011-06-30 $1.03B $0.15B 14.53%
2011-03-31 $0.99B $0.13B 12.87%
2010-12-31 $0.94B $0.13B 13.98%
2010-09-30 $0.92B $0.12B 13.18%
2010-06-30 $0.91B $0.11B 11.95%
2010-03-31 $0.88B $0.14B 15.77%
2009-12-31 $0.85B $0.13B 14.99%
Sector Industry Market Cap Revenue
Computer and Technology Computer Software $8.286B $4.485B
Open Text Corporation is engaged in development of innovative intranet, extranet and e-Business applications. Since creating one of the first search engines to index the World Wide Web, the company has remained at the forefront of Internet-based technologies. Open Text solutions allow individuals, teams, organizations, and global trading communities to collaborate on projects, share ideas and accelerate innovation to the fastest possible speed. Open Text Corporation is headquartered in Waterloo, Canada.
Stock Name Country Market Cap PE Ratio
Microsoft (MSFT) United States $3248.735B 37.85
Oracle (ORCL) United States $381.852B 31.00
Adobe (ADBE) United States $244.313B 39.53
Salesforce (CRM) United States $239.953B 35.73
Intuit (INTU) United States $177.948B 55.45
Synopsys (SNPS) United States $86.279B 59.46
Cadence Design Systems (CDNS) United States $76.265B 72.53
Autodesk (ADSK) United States $52.250B 47.63
Dassault Systemes SA (DASTY) France $50.191B 32.61
MicroStrategy (MSTR) United States $31.545B 0.00
ANSYS (ANSS) United States $27.459B 50.81
PTC (PTC) United States $21.058B 55.85
SS&C Technologies Holdings (SSNC) United States $16.459B 15.59
Manhattan Associates (MANH) United States $13.459B 71.43
Descartes Systems Group (DSGX) Canada $8.488B 71.01
Trend Micro (TMICY) Japan $6.411B 46.43
CommVault Systems (CVLT) United States $5.299B 85.87
Pegasystems (PEGA) United States $5.074B 44.86
ACI Worldwide (ACIW) United States $4.369B 20.93
Blackbaud (BLKB) United States $3.993B 34.38
Progress Software (PRGS) United States $2.376B 15.26
Sapiens (SPNS) Israel $2.193B 29.91
Verint Systems (VRNT) United States $2.091B 19.58
BlackBerry (BB) Canada $1.429B 0.00
PROS Holdings (PRO) United States $1.109B 0.00
Simulations Plus (SLP) United States $0.791B 59.01
Rand Worldwide (RWWI) United States $0.663B 0.00
Magic Software Enterprises (MGIC) Israel $0.544B 11.54
Canaan (CAN) China $0.339B 0.00
American Software (AMSWA) United States $0.320B 27.49
OptimizeRx (OPRX) United States $0.183B 0.00
Rigetti Computing (RGTI) United States $0.179B 0.00
Neonode (NEON) Sweden $0.048B 0.00
Icad Inc (ICAD) United States $0.035B 0.00
NetSol Technologies (NTWK) United States $0.032B 0.00
Wetouch Technology (WETH) $0.026B 0.00
Smith Micro Software (SMSI) United States $0.022B 0.00
Hanryu Holdings (HRYU) South Korea $0.014B 0.00
GSE Systems (GVP) United States $0.011B 0.00
SAP SE (SAP) Germany $0.000B 50.44